OpenBCM V1.07b12 (Linux)

Packet Radio Mailbox

DB0FHN

[JN59NK Nuernberg]

 Login: GUEST





  
F1EBE  > KEPS     05.04.03 00:04l 106 Lines 5485 Bytes #999 (0) @ AMSAT
BID : 27329_F8KGK
Read: DB0FHN GUEST
Subj: 2Line Orbital Elements 03093.AMSAT
Path: DB0FHN<DB0ZWI<DB0HST<F6GGY<F4CEP<F1EBN<F6KDS<F6BVP<F5KCK<F8KAE<F5GVH<
      F8KGK
Sent: 030404/0741Z @:F8KGK.FNOR.FRA.EU #:27329 [Rouen]xFBB7.04 $:27329_F8KGK
From: F1EBE@F8KGK.FNOR.FRA.EU
To  : KEPS@AMSAT



AO-7                    
1 07530U 74089B   03092.70742230 -.00000029  00000-0  10000-3 0  1608
2 07530 101.7518 140.0732 0012231 355.1605   4.9346 12.53565101298599
AO-10                   
1 14129U 83058B   03091.17918933 -.00000024  00000-0  10000-3 0  9244
2 14129  26.0433 157.4551 6010823 340.2144   4.1663  2.05867447120920
UO-11                   
1 14781U 84021B   03092.93737766  .00001767  00000-0  25135-3 0  1260
2 14781  98.1237  67.2175 0010639  71.8484 288.3884 14.78128926 22645
UO-14                   
1 20437U 90005B   03093.12230605  .00000140  00000-0  68528-4 0  2007
2 20437  98.2671 134.6416 0011797  71.7027 288.5441 14.31252799688721
AO-16                   
1 20439U 90005D   03092.71064139  .00000096  00000-0  51656-4 0  8752
2 20439  98.3098 146.1782 0012194  80.9084 279.3479 14.31488655688707
DO-17                   
1 20440U 90005E   03092.69114533  .00000183  00000-0  83869-4 0  7550
2 20440  98.3279 150.1559 0012041  78.5309 281.7226 14.31769215688779
WO-18                   
1 20441U 90005F   03092.89865508  .00000161  00000-0  76092-4 0   591
2 20441  98.3271 149.5387 0012741  80.2446 280.0176 14.31570675688789
LO-19                   
1 20442U 90005G   03092.73235508  .00000140  00000-0  67865-4 0  9994
2 20442  98.3391 152.4801 0012926  77.7262 282.5369 14.31734289688817
FO-20                   
1 20480U 90013C   03092.89036429 -.00000018  00000-0  41866-4 0  4806
2 20480  99.0534  47.5053 0539534 265.7650  88.1645 12.83331266616077
RS-12/13                
1 21089U 91007A   03092.63814769  .00000060  00000-0  47039-4 0  5208
2 21089  82.9230 149.4359 0029149 163.0963 197.1174 13.74408675609701
UO-22                   
1 21575U 91050B   03093.16947547  .00000326  00000-0  11835-3 0  7645
2 21575  98.1465  83.1117 0007935   9.4409 350.6928 14.39186764614559
KO-23                   
1 22077U 92052B   03092.94854292 -.00000037  00000-0  10000-3 0  2687
2 22077  66.0865  34.8816 0015815 264.6742  95.2471 12.86410248499884
AO-27                   
1 22825U 93061C   03092.95594880  .00000148  00000-0  74747-4 0  5307
2 22825  98.2710 120.4344 0009142 125.9982 234.2050 14.28958637496073
IO-26                   
1 22826U 93061D   03092.62938859  .00000155  00000-0  77233-4 0  3297
2 22826  98.2719 121.2582 0009487 125.5860 234.6207 14.29182923496075
KO-25                   
1 22828U 93061F   03092.59946211  .00000130  00000-0  66800-4 0  4636
2 22828  98.2648 121.4942 0010896 107.9946 252.2423 14.29522746464279
POSAT                   
1 22829U 93061G   03092.60070634  .00000228  00000-0  10446-3 0  4896
2 22829  98.2698 122.1254 0010678 107.3325 252.9025 14.29790717496200
RS-15                   
1 23439U 94085A   03092.75270930 -.00000029  00000-0  37646-3 0  6925
2 23439  64.8192 331.6552 0146433 106.6332 255.0723 11.27548233340467
FO-29                   
1 24278U 96046B   03092.95503285  .00000023  00000-0  55964-4 0  5779
2 24278  98.5431 238.2957 0351275 103.9553 260.0903 13.52877378327171
TO-31                   
1 25396U 98043C   03092.97394476 -.00000043  00000-0  00000-0 0  8551
2 25396  98.6184 169.2090 0002837  27.1442 332.9890 14.23524837245701
GO-32                   
1 25397U 98043D   03092.94237062  .00000065  00000-0  47949-4 0  1762
2 25397  98.6143 168.0062 0001936  45.9307 314.2030 14.22969781245664
SO-33                   
1 25509U 98061B   03092.80155378  .00000410  00000-0  69785-4 0  8157
2 25509  31.4327 269.0116 0357876 320.3643  37.1324 14.27474314231491
PO-34                   
1 25520U 98064B   03092.80226992  .00003584  00000-0  18141-3 0  6617
2 25520  28.4603 295.8435 0006929 110.8444 249.2921 15.14112873244140
ISS         
1 25544U 98067A   03093.60490101  .00035814  00000-0  43864-3 0  8512
2 25544  51.6340  34.8081 0008154  43.6240 316.5916 15.59656803249376
UO-36                   
1 25693U 99021A   03093.37485328  .00000482  00000-0  88770-4 0  8448
2 25693  64.5591 236.6997 0024501 313.8344  46.0745 14.76437799212724
OO-38                   
1 26063U 00004C   03092.69997828  .00000159  00000-0  75327-4 0  7545
2 26063 100.2041 155.0858 0036924 164.7671 195.4625 14.35499912166579
SO-41                   
1 26545U 00057A   03092.75187244  .00001871  00000-0  26626-3 0  4353
2 26545  64.5563 259.1881 0048859 232.0045 127.6594 14.79093657135618
MO-46                   
1 26548U 00057D   03092.90970251  .00002591  00000-0  34361-3 0  4402
2 26548  64.5547 251.1056 0041913 232.3226 127.4073 14.81417982135790
SO-42                   
1 26549U 00057E   03092.95438490  .00001297  00000-0  19471-3 0  7266
2 26549  64.5531 262.9023 0053194 231.4973 128.1366 14.78023270135557
AO-40                   
1 26609U 00072B   03089.95351304 -.00000429  00000-0  10000-3 0  3222
2 26609   8.3882  56.7114 7952873 159.0697 277.1387  1.25596479 11090
NO-44                   
1 26931U 01043C   03093.40490086  .00000185  00000-0  10533-3 0  4405
2 26931  67.0471 142.7607 0005669 273.9912  86.0540 14.29140545 78614
NO-45                   
1 26932U 01043D   03092.95773916  .00000074  00000-0  61628-4 0  4354
2 26932  67.0549 143.6074 0004072 257.2413 102.8240 14.29312036 78572
AO-49                   
1 27605U 02058A   03093.41797365  .00000907  00000-0  16611-3 0   986
2 27605  64.5498  64.0783 0034957  93.7039 266.8060 14.71439730 15266
SO-50                   
1 27607U 02058C   03092.97958896  .00001284  00000-0  23338-3 0   912
2 27607  64.5492  66.1547 0036067  91.2942 269.2304 14.69998847 15188



Read previous mail | Read next mail


 15.09.2025 10:41:30lGo back Go up